{"data":{"norad_id":63479,"epoch":"2026-09-20T07:26:24.714528Z","epoch_age_seconds":172783,"freshness":"FRESH","line1":"1 63479U 25070V   26263.31000827  .00008954  00000+0  33453-3 0  9999","line2":"2 63479  43.0015 236.9797 0001096 254.1329 105.9402 15.27579624 82783","mean_motion":15.27579624,"eccentricity":0.0001096,"inclination_deg":43.0015,"raan_deg":236.9797,"arg_perigee_deg":254.1329,"mean_anomaly_deg":105.9402,"bstar":0.00033453,"rev_number":8278,"period_min":94.266771916565,"perigee_km":482.29823579963,"apogee_km":483.80220803867,"semimajor_km":6861.1872219191,"source":"CELESTRAK","updated_at":"2026-09-21T09:00:35.011167Z"}}